This is the latest recevied weather packets stored in our database for station/object KA2FNK. If no packets are shown the sender has not sent any weather packets the latest 10 day(s).
| Time | Temp. | Humidity | Pressure | Rain* | Wind** | Luminosity | Snow |
|---|---|---|---|---|---|---|---|
| 1778074399 | 10° C | 67% | 1017.6 hPa | 0 mm | - | - | - |
| 1778074099 | 9.44° C | 70% | 1017.5 hPa | 0 mm | - | - | - |
| 1778073797 | 9.44° C | 69% | 1017.4 hPa | 0 mm | - | - | - |
| 1778073497 | 9.44° C | 73% | 1017.4 hPa | 0 mm | - | - | - |
| 1778073196 | 9.44° C | 73% | 1017.2 hPa | 0 mm | - | - | - |
| 1778072894 | 8.89° C | 76% | 1017.2 hPa | 0 mm | - | - | - |
| 1778072594 | 8.89° C | 76% | 1017.1 hPa | 0 mm | - | - | - |
| 1778072292 | 8.33° C | 79% | 1017.1 hPa | 0 mm | - | - | - |
| 1778071991 | 8.33° C | 81% | 1017.1 hPa | 0 mm | - | - | - |
| 1778071691 | 8.33° C | 84% | 1017 hPa | 0 mm | - | - | - |
| 1778071390 | 7.78° C | 85% | 1016.8 hPa | 0 mm | - | - | - |
| 1778071089 | 7.78° C | 86% | 1016.8 hPa | 0 mm | - | - | - |
| 1778070788 | 7.78° C | 87% | 1016.7 hPa | 0 mm | - | - | - |
| 1778070487 | 7.78° C | 88% | 1016.6 hPa | 0 mm | - | - | - |
| 1778070185 | 7.78° C | 90% | 1016.5 hPa | 0 mm | - | - | - |
| 1778069885 | 7.78° C | 92% | 1016.4 hPa | 0 mm | - | - | - |
| 1778069584 | 7.22° C | 93% | 1016.3 hPa | 0 mm | - | - | - |
| 1778069282 | 7.78° C | 93% | 1016.3 hPa | 0 mm | - | - | - |
| 1778068982 | 7.22° C | 93% | 1016.1 hPa | 0 mm | - | - | - |
| 1778068681 | 7.78° C | 93% | 1015.9 hPa | 0 mm | - | - | - |
| 1778068380 | 7.22° C | 93% | 1015.9 hPa | 0 mm | - | - | - |
| 1778068079 | 7.22° C | 93% | 1015.8 hPa | 0 mm | - | - | - |
| 1778067778 | 7.22° C | 92% | 1015.7 hPa | 0 mm | - | - | - |
| 1778067477 | 7.22° C | 92% | 1015.8 hPa | 0 mm | - | - | - |
| 1778067176 | 7.22° C | 92% | 1015.6 hPa | 0 mm | - | - | - |
* Rain latest hour (hover to see other rain measurements)
** Current wind speed in m/s (hover to see current wind gust speed)